Weather History for Pecs, Hungary

Change the Weather History Date:

Wednesday, November 7, 2012

  Actual Average Record
Temperature  
Mean Temperature 44 °F -  
Max Temperature 51 °F 46 °F - ()
Min Temperature 36 °F 34 °F - ()
Degree Days  
Heating Degree Days 22    
Moisture  
Dew Point 36 °F    
Average Humidity 70    
Maximum Humidity 87    
Minimum Humidity 47    
Precipitation  
Precipitation 0.00 in 0.07 in - ()
Sea Level Pressure  
Sea Level Pressure 30.27 in    
Wind  
Wind Speed 5 mph ()    
Max Wind Speed 10 mph    
Max Gust Speed -    
Visibility 6.2 miles    
Events      
T = Trace of Precipitation, MM = Missing Value Source: Averaged Metar Reports

Daily Weather History Graph

Daily Weather History Graph

Search for Another Location

Airport:

Trip Planner

Search our weather history database for the weather conditions in past years. The results will help you decide how hot, cold, wet, or windy it might be!

Date:

Astronomy

Nov. 07, 2012 Rise Set
Actual Time 6:36 AM CET 4:24 PM CET
Civil Twilight 6:04 AM CET 4:56 PM CET
Nautical Twilight 5:28 AM CET 5:31 PM CET
Astronomical Twilight 4:54 AM CET 6:06 PM CET
Moon 11:54 PM CET (11/7) 12:44 PM CET (11/7)
Length of Visible Light 10h 51m
Length of Day
9h 48m
Last Quarter, 46% of the Moon is Illuminated
Nov 7
Last Quarter
Nov 13
New
Nov 20
First Quarter
Nov 28
Full
Dec 6
Last Quarter

Hourly Weather History & Observations

Time (CET) Temp. Windchill Dew Point Humidity Pressure Visibility Wind Dir Wind Speed Gust Speed Precip Events Conditions
12:45 AM 41.0 °F - 37.4 °F 87% 30.18 in - NNE 2.3 mph - N/A   Clear
1:00 AM 42 °F - 37 °F 75% 30.20 in 25 mi NNE 2.2 mph - -   Partly Cloudy
1:45 AM 41.0 °F 36.4 °F 33.8 °F 76% 30.18 in - North 6.9 mph - N/A   Clear
2:45 AM 42.8 °F 41.1 °F 32.0 °F 66% 30.18 in - NE 3.5 mph - N/A   Clear
3:45 AM 41.0 °F - 32.0 °F 70% 30.21 in - Calm Calm - N/A   Clear
4:45 AM 41.0 °F - 30.2 °F 65% 30.21 in - Calm Calm - N/A   Clear
5:15 AM 39.2 °F 37.0 °F 30.2 °F 70% 30.21 in - West 3.5 mph - N/A   Clear
5:45 AM 35.6 °F 31.7 °F 30.2 °F 81% 30.24 in - WNW 4.6 mph - N/A   Clear
6:00 AM - - - N/A% - - Variable 3.5 mph - N/A   Clear
6:15 AM 37.4 °F 33.8 °F 33.8 °F 87% 30.24 in - WSW 4.6 mph - N/A   Clear
6:45 AM 37.4 °F 33.8 °F 32.0 °F 81% 30.24 in - NW 4.6 mph - N/A   Clear
7:00 AM 37 °F - 32 °F 75% 30.27 in 31 mi NW 4.5 mph - -   Partly Cloudy
7:15 AM 37.4 °F 32.8 °F 33.8 °F 87% 30.24 in - NW 5.8 mph - N/A   Clear
7:45 AM 41.0 °F 38.0 °F 33.8 °F 76% 30.24 in - WNW 4.6 mph - N/A   Clear
8:15 AM 41.0 °F 37.1 °F 33.8 °F 76% 30.27 in - WNW 5.8 mph - N/A   Clear
8:45 AM 42.8 °F 40.1 °F 35.6 °F 76% 30.27 in - NW 4.6 mph - N/A   Clear
9:00 AM - - - N/A% - - WNW 8.1 mph - N/A   Clear
9:15 AM 44.6 °F 42.2 °F 37.4 °F 76% 30.27 in - NW 4.6 mph - N/A   Clear
9:45 AM 46.4 °F 43.5 °F 37.4 °F 71% 30.27 in - West 5.8 mph - N/A   Clear
10:15 AM 46.4 °F 43.5 °F 37.4 °F 71% 30.27 in - West 5.8 mph - N/A   Clear
10:45 AM 48.2 °F - 35.6 °F 62% 30.27 in - WSW 5.8 mph - N/A   Clear
11:15 AM 48.2 °F - 37.4 °F 66% 30.27 in - SW 10.4 mph - N/A   Clear
11:45 AM 48.2 °F - 35.6 °F 62% 30.27 in - SW 10.4 mph - N/A   Clear
12:00 PM - - - N/A% - - WSW 10.4 mph - N/A   Clear
12:15 PM 48.2 °F - 37.4 °F 66% 30.27 in - SW 9.2 mph - N/A   Clear
12:45 PM 50.0 °F - 35.6 °F 58% 30.27 in - WSW 6.9 mph - N/A   Clear
1:00 PM 49 °F - 35 °F 47% 30.28 in 44 mi WSW 6.7 mph - -   Partly Cloudy
1:15 PM 50.0 °F - 35.6 °F 58% 30.27 in 6.2 mi WSW 8.1 mph - N/A   Partly Cloudy
1:45 PM 50.0 °F - 35.6 °F 58% 30.24 in 6.2 mi West 8.1 mph - N/A   Partly Cloudy
2:15 PM 50.0 °F - 35.6 °F 58% 30.27 in 6.2 mi WSW 8.1 mph - N/A   Mostly Cloudy
2:45 PM 50.0 °F - 35.6 °F 58% 30.27 in 6.2 mi West 8.1 mph - N/A   Mostly Cloudy
3:00 PM - - - N/A% - 6.2 mi WSW 6.9 mph - N/A   Scattered Clouds
3:15 PM 50.0 °F - 37.4 °F 62% 30.27 in - West 9.2 mph - N/A   Clear
3:45 PM 48.2 °F - 37.4 °F 66% 30.27 in - West 6.9 mph - N/A   Clear
4:15 PM 48.2 °F - 35.6 °F 62% 30.27 in - West 9.2 mph - N/A   Clear
4:45 PM 48.2 °F - 37.4 °F 66% 30.27 in - West 8.1 mph - N/A   Clear
5:15 PM 46.4 °F 45.2 °F 39.2 °F 76% 30.30 in - WSW 3.5 mph - N/A   Clear
5:45 PM 46.4 °F 45.2 °F 39.2 °F 76% 30.30 in - SW 3.5 mph - N/A   Clear
6:15 PM 46.4 °F 45.2 °F 39.2 °F 76% 30.30 in - WSW 3.5 mph - N/A   Clear
6:45 PM 46.4 °F 45.2 °F 39.2 °F 76% 30.33 in - WSW 3.5 mph - N/A   Clear
7:00 PM 46 °F - 39 °F 67% 30.33 in 37 mi WSW 4.5 mph - -   Partly Cloudy
7:15 PM 46.4 °F 45.2 °F 37.4 °F 71% 30.33 in - West 3.5 mph - N/A   Clear
7:45 PM 46.4 °F 45.2 °F 37.4 °F 71% 30.33 in - WSW 3.5 mph - N/A   Clear
8:15 PM 46.4 °F 45.2 °F 37.4 °F 71% 30.33 in - WSW 3.5 mph - N/A   Clear
8:45 PM 46.4 °F 43.5 °F 37.4 °F 71% 30.33 in - West 5.8 mph - N/A   Clear
9:45 PM 46.4 °F 43.5 °F 35.6 °F 66% 30.36 in - West 5.8 mph - N/A   Clear
10:45 PM 44.6 °F 43.1 °F 37.4 °F 76% 30.33 in - WSW 3.5 mph - N/A   Clear
11:45 PM 46.4 °F 42.9 °F 37.4 °F 71% 30.36 in - West 6.9 mph - N/A   Clear